Regional Weather Roundup
Issued by NWS

Home | Current Version | Previous Version | Text Only | Print | Product List | Glossary Off
Versions: 1 2 3 4 5 6 7 8 9 10 11 12 13 14 15 16 17 18 19 20 21 22 23 24 25 26 27 28 29 30 31 32 33 34 35 36 37 38 39 40 41 42 43 44 45 46 47 48 49 50

963
ASUS44 KJAN 281210
RWRMS

MISSISSIPPI HOURLY WEATHER ROUNDUP
NATIONAL WEATHER SERVICE JACKSON MS
600 AM CST SAT FEB 28 2015

NOTE: "FAIR: INDICATES FEW OR NO CLOUDS BELOW 12,000 FEET WITH NO
SIGNIFICANT WEATHER AND/OR OBSTRUCTIONS TO VISIBILITY.

MSZ001>002-007>008-010>013-018>021-025>028-034>036-281300-
NORTHWEST MISSISSIPPI

CITY           SKY/WX    TMP DP  RH WIND       PRES   REMARKS
CLARKSDALE     CLOUDY    30  21  69 N9        30.53S WCI  22
CLEVELAND      CLOUDY    31  24  76 NE10      30.49S WCI  22
GREENWOOD        N/A    N/A N/A N/A MISG      30.49S
GREENVILLE     CLOUDY    31  23  72 NE10      30.48R WCI  22
6HR MIN TEMP:  31; 6HR MAX TEMP:  31;

OLIVE BRANCH   CLOUDY    28  18  64 NE7       30.54R WCI  21
OXFORD         FAIR      28  16  59 NE7       30.52S WCI  21
TUNICA         CLOUDY    30  21  69 N10       30.55R WCI  21
$$

MSZ003>006-009-014>017-022>024-029>033-037>039-281300-
NORTHEAST MISSISSIPPI

CITY           SKY/WX    TMP DP  RH WIND       PRES   REMARKS
COLUMBUS AFB   NOT AVBL
CORINTH        CLOUDY    30  12  47 N7        30.52S WCI  23
GOLDN TRIANGLE CLOUDY    34  19  55 NE7       30.48R WCI  28
STARKVILLE     FAIR      34  21  60 NE5       30.49R WCI  30
TUPELO         CLOUDY    31  16  54 NE7       30.52R WCI  24
6HR MIN TEMP:  31; 6HR MAX TEMP:  33;

$$

MSZ040-058-281300-
CENTRAL MISSISSIPPI

CITY           SKY/WX    TMP DP  RH WIND       PRES   REMARKS
JACKSON INTL   PTCLDY    30  23  75 CALM      30.45R
6HR MIN TEMP:  30; 6HR MAX TEMP:  38;

JACKSON HAWKNS PTCLDY    33  20  58 E6        30.45R WCI  28
6HR MIN TEMP:  33; 6HR MAX TEMP:  38;

MERIDIAN KEY   PTCLDY    34  20  56 E5        30.47R WCI  30
6HR MIN TEMP:  33; 6HR MAX TEMP:  35;

MERIDIAN NAS   PTCLDY    34  21  59 E3        30.48R
6HR MIN TEMP:  34; 6HR MAX TEMP:  35;

VICKSBURG      CLEAR     32  26  78 NE6       30.45S WCI  26
6HR MIN TEMP:  32; 6HR MAX TEMP:  34;

$$

MSZ059>079-281300-
SOUTH MISSISSIPPI

CITY           SKY/WX    TMP DP  RH WIND       PRES   REMARKS
BROOKHAVEN     FAIR      32  27  80 CALM      30.44F
HATTIESBURG    CLEAR     30  25  81 CALM      30.46R
6HR MIN TEMP:  30; 6HR MAX TEMP:  37;

MCCOMB         CLEAR     33  22  63 NE6       30.42R WCI  28
6HR MIN TEMP:  33; 6HR MAX TEMP:  36;

NATCHEZ        CLEAR     32  25  74 E9G18     30.40F WCI  24
6HR MIN TEMP:  27; 6HR MAX TEMP:  32;

PINE BELT      CLEAR     28  19  69 N5        30.45R WCI  23
6HR MIN TEMP:  28; 6HR MAX TEMP:  36;

$$

MSZ080>082-281300-
COASTAL MISSISSIPPI

CITY           SKY/WX    TMP DP  RH WIND       PRES   REMARKS
BILOXI         CLEAR     37  26  65 NE13      30.41R WCI  29
6HR MIN TEMP:  37; 6HR MAX TEMP:  42;

PASCAGOULA     CLEAR     36  27  69 N12       30.42R WCI  28
6HR MIN TEMP:  36; 6HR MAX TEMP:  41;

GULFPORT       CLEAR     37  25  61 NE8       30.41R WCI  31
6HR MIN TEMP:  37; 6HR MAX TEMP:  42;

$$



USA.gov is the U.S. government's official web portal to all federal, state and local government web resources and services.